Content
SEND FEEDBACK

Daily
Averages
Monthly
Summary
United States of America

DES PLAINES, ILLINOIS


Home > North America > United States > Illinois
Elevation: 651 feet     Latitude: 42 00N     Longitude: 087 54W

WEATHER
 
SELECT A DAY
Number of Records: 198,944;   Date Range: 7/8/95 - 11/27/14
 
SHARE

PRINT THIS DATA

[ ← Previous Day ]
WEATHER ALMANAC - MARCH 8, 2013
[ Next Day → ]
[ °C ]   °F
Weather ElementAverageHighLow
Temperature32.5 °F41 °F (3:52 pm)23 °F (5:52 am)
Dewpoint24.4 °F26.1 °F (2:52 am)19.9 °F (5:52 am)
Humidity73.6 %96 % (6:52 am)49 % (3:52 pm)
Barometer30.45 in30.52 in (7:52 am)30.34 in (11:52 pm)
Wind Speed4.6 mph11.5 mph (10:52 am)
Weather ElementAverage
Visibility8.9 mi
Wind DirectionE (94.3 °)

Weather ElementTotal
Precipitation---
Heating Degree Days33 (Base 65)
Averaged from 23 records on March 8, 2013
WEATHER CONDITIONS BREAKOUT
WIND DIRECTION BREAKOUT
WEATHER BY HOUR - MARCH 8, 2013
[ °C ]   °F
Local TimeTemperatureDewpointHumidityBarometerVisibilityWind DirectionWind SpeedGust SpeedPrecipitationEventsConditions
1:52 AM28.0 °F24.1 °F85 %30.47 in9.0 miCalmOvercast
2:52 AM28.9 °F26.1 °F89 %30.48 in8.0 miCalmOvercast
3:52 AM25.0 °F23.0 °F92 %30.47 in8.0 miCalmScattered Clouds
4:52 AM25.0 °F21.9 °F88 %30.49 in8.0 miCalmClear
5:52 AM23.0 °F19.9 °F88 %30.50 in7.0 miCalmClear
6:52 AM23.0 °F21.9 °F96 %30.51 in5.0 miCalmClear
7:52 AM28.0 °F26.1 °F92 %30.52 in6.0 miCalmClear
8:52 AM32.0 °F26.1 °F79 %30.51 in10.0 miSE (140°)6.9 mphClear
9:52 AM34.0 °F26.1 °F73 %30.52 in10.0 miSE (130°)9.2 mphScattered Clouds
10:52 AM35.1 °F25.0 °F67 %30.50 in10.0 miSSE (150°)11.5 mphClear
11:52 AM36.0 °F25.0 °F64 %30.50 in10.0 miSSE (150°)8.1 mphClear
12:52 PM37.9 °F23.0 °F55 %30.46 in10.0 miSouth (180°)8.1 mphClear
1:52 PM39.0 °F25.0 °F57 %30.43 in10.0 miSSW (200°)6.9 mphClear
2:52 PM39.9 °F24.1 °F53 %30.42 in10.0 miSouth (170°)8.1 mphClear
3:52 PM41.0 °F23.0 °F49 %30.41 in10.0 miSSW (200°)9.2 mphClear
4:52 PM39.0 °F26.1 °F60 %30.40 in10.0 miEast (100°)6.9 mphClear
5:52 PM37.0 °F25.0 °F62 %30.42 in10.0 miESE (120°)6.9 mphClear
6:52 PM35.1 °F24.1 °F64 %30.42 in10.0 miSE (130°)5.8 mphClear
7:52 PM34.0 °F25.0 °F70 %30.42 in10.0 miESE (120°)4.6 mphClear
8:52 PM33.1 °F26.1 °F75 %30.41 in10.0 miESE (120°)5.8 mphClear
9:52 PM30.9 °F25.0 °F79 %30.40 in9.0 miSE (130°)3.5 mphClear
10:52 PM30.9 °F25.0 °F79 %30.37 in7.0 miCalmClear
11:52 PM30.9 °F24.1 °F76 %30.34 in8.0 miSE (130°)4.6 mphClear
Hourly data recorded from KPWK, located miles away from Des Plaines, Illinois







STORIES FROM OUR PARTNERS